AAA1123 YBMK-YBBN

Flight info

Callsign AAA1123
Flight time N/A
Altitude 37000
Route DCT MK V153 MUNAR Y61 RUROX Y177 BN DCT
Aircraft A320/M-SDE3FGHIRWY/LB1

Departure

Time 2026-04-26 06:33
Airport Mackay Airport (YBMK)

Arrival

Time N/A
Airport Brisbane International Airport (YBBN)
Time Latitude Longitude Altitude Speed Heading
2026-04-26 06:26 -21.17520 149.18214 27 ft 0 kts 288°
2026-04-26 06:30 -21.17508 149.18203 28 ft 8 kts 333°
2026-04-26 06:30 -21.17428 149.18287 28 ft 28 kts 49°
2026-04-26 06:30 -21.17263 149.18455 23 ft 35 kts
2026-04-26 06:30 -21.17096 149.18299 25 ft 31 kts 314°
2026-04-26 06:31 -21.16926 149.18148 25 ft 32 kts 322°
2026-04-26 06:31 -21.16733 149.18014 24 ft 33 kts 330°
2026-04-26 06:31 -21.16531 149.17889 24 ft 34 kts 330°
2026-04-26 06:31 -21.16341 149.17775 26 ft 16 kts 330°
2026-04-26 06:32 -21.16304 149.17716 25 ft 3 kts 217°
2026-04-26 06:32 -21.16311 149.17723 26 ft 2 kts 143°
2026-04-26 06:32 -21.16467 149.17839 25 ft 69 kts 146°
2026-04-26 06:32 -21.17103 149.18281 28 ft 144 kts 148°
2026-04-26 06:33 -21.17993 149.18856 653 ft 147 kts 148°
2026-04-26 06:33 -21.18852 149.19448 1309 ft 146 kts 146°
2026-04-26 06:33 -21.19685 149.20064 1995 ft 145 kts 145°
2026-04-26 06:33 -21.20515 149.20677 2670 ft 144 kts 145°
2026-04-26 06:34 -21.21333 149.21266 3340 ft 139 kts 145°
2026-04-26 06:34 -21.22137 149.21828 4010 ft 137 kts 146°
2026-04-26 06:34 -21.22931 149.22378 4724 ft 129 kts 146°
2026-04-26 06:34 -21.23461 149.22744 5154 ft 127 kts 147°